SV1DAY-13 Weather Reports


Display with metric or nautical units.
time (UTC)temp
F
wind
direction
speed
MPH
gust
MPH
rain 1hr
in
rain 24hr
in
rain mn
in
humidity
%
barometer
mb
20260507154554 66 109 5.0 8.0 0.00 0.01 0.01 50 1017.2
20260507153058 67 96 3.0 4.0 0.00 0.01 0.01 46 1017.4
20260507151546 69 96 2.0 3.0 0.00 0.01 0.01 40 1017.3
20260507150043 68 102 3.0 4.0 0.00 0.01 0.01 44 1017.1
20260507144543 68 93 2.0 3.0 0.00 0.01 0.01 42 1017.4
20260507143054 68 93 2.0 4.0 0.00 0.01 0.01 46 1017.2
20260507141559 67 111 2.0 4.0 0.00 0.01 0.01 57 1017.3
20260507140051 67 127 1.0 3.0 0.00 0.01 0.01 59 1017.8
20260507134553 68 129 3.0 7.0 0.00 0.01 0.01 56 1017.8
20260507133116 69 122 4.0 8.0 0.00 0.01 0.01 53 1017.1
20260507131546 69 111 5.0 7.0 0.00 0.01 0.01 44 1017.6
20260507130038 69 112 5.0 8.0 0.00 0.01 0.01 52 1017.6
20260507124653 69 109 5.0 8.0 0.00 0.01 0.01 53 1017.5
20260507123050 69 104 6.0 10.0 0.00 0.01 0.01 47 1017.9
20260507121544 69 111 7.0 11.0 0.00 0.01 0.01 54 1018.0
20260507120038 69 117 7.0 11.0 0.00 0.01 0.01 54 1017.8
20260507114610 66 114 7.0 10.0 0.00 0.01 0.01 58 1017.8
20260507113054 64 89 7.0 10.0 0.00 0.01 0.01 61 1017.8
20260507111608 63 98 6.0 10.0 0.00 0.01 0.01 62 1017.9
20260507110043 64 109 6.0 10.0 0.00 0.01 0.01 62 1017.8
20260507104543 63 111 8.0 10.0 0.00 0.01 0.01 65 1017.8
20260507103044 63 109 7.0 10.0 0.00 0.01 0.01 64 1018.0
20260507101554 64 128 5.0 8.0 0.00 0.01 0.01 66 1018.2
20260507100053 64 138 3.0 8.0 0.00 0.01 0.01 72 1018.3
20260507094557 63 134 6.0 9.0 0.00 0.01 0.01 72 1018.5
20260507093044 63 124 6.0 10.0 0.00 0.01 0.01 71 1018.6
20260507091542 63 142 6.0 12.0 0.00 0.01 0.01 70 1018.7
20260507090036 63 130 7.0 12.0 0.00 0.01 0.01 69 1018.5
20260507084557 63 101 8.0 12.0 0.00 0.01 0.01 68 1018.3
20260507083050 63 114 8.0 13.0 0.00 0.01 0.01 65 1018.2
20260507081547 63 121 8.0 12.0 0.00 0.01 0.01 64 1017.9
20260507080044 63 105 7.0 12.0 0.00 0.01 0.01 63 1017.9
20260507074549 62 115 7.0 11.0 0.00 0.01 0.01 63 1018.1
20260507073048 61 137 6.0 13.0 0.00 0.01 0.01 63 1017.7
20260507071556 63 113 8.0 15.0 0.00 0.01 0.01 62 1017.5
20260507070057 66 123 8.0 12.0 0.00 0.01 0.01 58 1017.3
20260507064557 66 87 6.0 12.0 0.00 0.01 0.01 56 1017.3
20260507063048 63 96 6.0 10.0 0.00 0.01 0.01 61 1017.3
20260507061541 63 97 4.0 6.0 0.00 0.01 0.01 60 1017.2
20260507060040 61 98 5.0 9.0 0.00 0.01 0.01 62 1017.3
20260507054558 64 104 4.0 6.0 0.00 0.01 0.01 59 1017.1
20260507053113 63 89 5.0 7.0 0.00 0.01 0.01 58 1017.1
20260507051550 62 278 1.0 2.0 0.00 0.01 0.01 61 1017.1
20260507050046 65 360 0.0 1.0 0.00 0.01 0.01 51 1017.0
20260507044558 61 360 0.0 4.0 0.00 0.01 0.01 56 1016.9
20260507043037 59 257 6.0 9.0 0.00 0.01 0.01 76 1016.9
20260507041555 60 251 3.0 5.0 0.00 0.01 0.01 78 1016.7
20260507040049 60 257 3.0 6.0 0.00 0.01 0.01 78 1016.5
20260507034548 60 247 4.0 7.0 0.00 0.01 0.01 78 1016.4
20260507033100 60 241 4.0 7.0 0.01 0.01 0.01 78 1016.3
20260507031554 60 241 0.0 0.0 0.01 0.01 0.01 78 1016.0
20260507030047 60 241 0.0 2.0 0.01 0.01 0.01 78 1015.6
20260507024613 58 241 1.0 3.0 0.01 0.01 0.01 78 1015.5
20260507023054 60 241 2.0 3.0 0.00 0.00 0.00 78 1015.6
20260507021554 60 241 2.0 4.0 0.00 0.00 0.00 78 1015.6
20260507020055 61 241 2.0 4.0 0.00 0.00 0.00 78 1015.6
20260507014552 61 241 3.0 4.0 0.00 0.00 0.00 78 1015.6
20260507013042 61 241 0.0 0.0 0.00 0.00 0.00 78 1015.5
20260507011559 60 241 0.0 0.0 0.00 0.00 0.00 77 1015.5
20260507010051 61 241 0.0 0.0 0.00 0.00 0.00 77 1015.5
20260507004552 61 241 2.0 3.0 0.00 0.00 0.00 77 1015.5
20260507003046 61 241 1.0 3.0 0.00 0.00 0.00 77 1015.5
20260507001543 61 241 1.0 4.0 0.00 0.00 0.00 76 1015.6
20260507000037 61 241 3.0 5.0 0.00 0.00 0.00 76 1015.7
20260506234551 61 240 3.0 5.0 0.00 0.00 0.00 75 1015.6
20260506233057 61 236 3.0 7.0 0.00 0.00 0.00 74 1015.8
20260506231553 60 249 4.0 7.0 0.00 0.00 0.00 74 1015.7
20260506230040 60 249 7.0 9.0 0.00 0.00 0.00 75 1016.0
20260506224543 60 250 7.0 9.0 0.00 0.00 0.00 76 1016.2
20260506223040 60 260 8.0 13.0 0.00 0.00 0.00 77 1016.3
20260506221551 61 253 9.0 12.0 0.00 0.00 0.00 77 1016.4
20260506220053 61 254 9.0 12.0 0.00 0.00 0.00 77 1016.3
20260506214549 62 247 8.0 11.0 0.00 0.00 0.00 76 1016.3
20260506213045 62 252 7.0 11.0 0.00 0.00 0.00 76 1016.4
20260506211559 61 243 7.0 10.0 0.00 0.00 0.00 75 1016.5
20260506210054 61 251 5.0 9.0 0.00 0.00 0.00 75 1016.4
20260506204551 61 244 4.0 7.0 0.00 0.00 0.00 74 1016.5
20260506203046 61 246 3.0 5.0 0.00 0.00 0.00 72 1016.6
20260506201556 60 250 5.0 9.0 0.00 0.00 0.00 69 1016.5
20260506200040 59 246 4.0 7.0 0.00 0.00 0.00 65 1016.4
20260506194540 61 250 5.0 9.0 0.00 0.00 0.00 64 1016.3
20260506193057 64 252 5.0 8.0 0.00 0.00 0.00 61 1016.2
20260506191549 64 249 4.0 7.0 0.00 0.00 0.00 53 1016.1
20260506190044 64 249 3.0 4.0 0.00 0.00 0.00 43 1015.9
20260506184550 65 249 3.0 5.0 0.00 0.00 0.00 39 1015.8
20260506183041 65 249 2.0 4.0 0.00 0.00 0.00 39 1015.4
20260506181558 65 249 2.0 4.0 0.00 0.00 0.00 39 1015.4
20260506180053 65 249 3.0 5.0 0.00 0.00 0.00 40 1015.2
20260506174553 65 249 2.0 4.0 0.00 0.00 0.00 39 1015.2
20260506173122 65 249 1.0 5.0 0.00 0.00 0.00 40 1015.1
20260506171543 65 249 3.0 4.0 0.00 0.00 0.00 40 1014.8
20260506170041 66 249 2.0 4.0 0.00 0.00 0.00 41 1015.0
20260506164606 67 250 2.0 4.0 0.00 0.00 0.00 39 1015.0
20260506163104 67 250 2.0 6.0 0.00 0.00 0.00 38 1015.1
20260506161609 68 258 2.0 5.0 0.00 0.00 0.00 43 1015.1
20260506160046 68 229 3.0 6.0 0.00 0.00 0.00 44 1015.1